Fort Nelson, British Columbia

2:01 PM PDT on October 18, 2017 (GMT -0700)
Fort Nelson

Weather History for CYYE - October, 2013

Change the Weather History Date:

Wednesday, October 30, 2013

  Actual Average Record
Temperature  
Mean Temperature 36 °F -  
Max Temperature 46 °F 15 °F 48 °F (2010)
Min Temperature 26 °F 0 °F -8 °F (2012)
Degree Days  
Heating Degree Days 29    
Moisture  
Dew Point 27 °F    
Average Humidity 77    
Maximum Humidity 100    
Minimum Humidity 45    
Precipitation  
Precipitation 0.00 in 0.03 in - ()
Sea Level Pressure  
Sea Level Pressure 29.62 in    
Wind  
Wind Speed 4 mph ()    
Max Wind Speed 8 mph    
Max Gust Speed -    
Visibility 15.3 miles    
Events      
Averages and records for this station are not official NWS values.
T = Trace of Precipitation, MM = Missing Value Source: Averaged Metar Reports

Daily Weather History Graph

Daily Weather History Graph

Search for Another Location

Airport or City:

Trip Planner

Search our weather history database for the weather conditions in past years. The results will help you decide how hot, cold, wet, or windy it might be!

Date:

Astronomy

Oct. 30, 2013 Rise Set
Actual Time 8:23 AM PDT 5:23 PM PDT
Civil Twilight 7:40 AM PDT 6:06 PM PDT
Nautical Twilight 6:53 AM PDT 6:53 PM PDT
Astronomical Twilight 6:06 AM PDT 7:39 PM PDT
Moon 3:26 AM PDT (10/30) 3:56 PM PDT (10/30)
Length of Visible Light 10h 25m
Length of Day
8h 59m
Waning Crescent, 16% of the Moon is Illuminated
Oct 30
Waning Crescent
Nov 3
New
Nov 9
First Quarter
Nov 17
Full
Nov 25
Last Quarter

Hourly Weather History & Observations

Time (PDT) Temp. Windchill Dew Point Humidity Pressure Visibility Wind Dir Wind Speed Gust Speed Precip Events Conditions
12:00 AM 46.4 °F 42.4 °F 26.6 °F 46% 29.66 in 15.0 mi WNW 8.1 mph - N/A   Clear
1:00 AM 39.2 °F 33.6 °F 26.6 °F 61% 29.67 in 15.0 mi SW 8.1 mph - N/A   Clear
2:00 AM 33.8 °F 30.8 °F 26.6 °F 75% 29.68 in 15.0 mi SSW 3.5 mph - N/A   Clear
3:00 AM 33.8 °F 29.6 °F 26.6 °F 75% 29.69 in 15.0 mi SSW 4.6 mph - N/A   Clear
4:00 AM 32.0 °F 27.5 °F 26.6 °F 80% 29.70 in 15.0 mi SSE 4.6 mph - N/A   Clear
5:00 AM 31 °F - 27 °F 80% 29.70 in 15 mi South 3.5 mph - -  
5:00 AM 30.2 °F 24.3 °F 26.6 °F 86% 29.70 in 15.0 mi South 5.8 mph - N/A   Clear
6:00 AM 28.4 °F 22.2 °F 26.6 °F 93% 29.70 in 15.0 mi South 5.8 mph - N/A   Clear
7:00 AM 28.4 °F - 26.6 °F 93% 29.70 in 15.0 mi SSE 2.3 mph - N/A   Scattered Clouds
8:00 AM 28.4 °F 23.3 °F 26.6 °F 93% 29.69 in 30.0 mi South 4.6 mph - N/A   Scattered Clouds
9:00 AM 28.4 °F 23.3 °F 24.8 °F 86% 29.68 in 30.0 mi SSE 4.6 mph - N/A   Scattered Clouds
10:00 AM 30.2 °F 23.4 °F 26.6 °F 86% 29.68 in 30.0 mi South 6.9 mph - N/A   Scattered Clouds
11:00 AM 33 °F - 27 °F 72% 29.67 in 25 mi South 5.8 mph - -   Partly Cloudy
11:00 AM 33.8 °F 28.6 °F 26.6 °F 75% 29.67 in 25.0 mi South 5.8 mph - N/A   Scattered Clouds
12:00 PM 37.4 °F 33.8 °F 26.6 °F 65% 29.65 in 30.0 mi South 4.6 mph - N/A   Scattered Clouds
1:00 PM 39.2 °F 35.9 °F 28.4 °F 65% 29.64 in 30.0 mi South 4.6 mph - N/A   Scattered Clouds
2:00 PM 42.8 °F - 28.4 °F 57% 29.62 in 30.0 mi SSE 2.3 mph - N/A   Scattered Clouds
3:00 PM 44.6 °F - 30.2 °F 57% 29.60 in 30.0 mi SSE 2.3 mph - N/A   Mostly Cloudy
4:00 PM 44.6 °F 43.1 °F 30.2 °F 57% 29.58 in 30.0 mi SW 3.5 mph - N/A   Partly Cloudy
5:00 PM 44 °F - 29 °F 45% 29.56 in 28 mi SSE 1.2 mph - -   Scattered Clouds
5:00 PM 44.6 °F - 30.2 °F 57% 29.56 in 30.0 mi Calm Calm - N/A   Partly Cloudy
6:00 PM 32.0 °F 28.7 °F 28.4 °F 87% 29.56 in 20.0 mi SSE 3.5 mph - N/A   Partly Cloudy
7:00 PM 30.2 °F - 26.6 °F 86% 29.54 in 15.0 mi Calm Calm - N/A   Partly Cloudy
8:00 PM 28.4 °F 23.3 °F 26.6 °F 93% 29.53 in 15.0 mi West 4.6 mph - N/A   Partly Cloudy
9:00 PM 28.4 °F - 26.6 °F 93% 29.51 in 15.0 mi WSW 2.3 mph - N/A   Partly Cloudy
10:00 PM 26.6 °F 22.6 °F 24.8 °F 93% 29.50 in 15.0 mi Variable 3.5 mph - N/A   Clear
11:00 PM 28 °F - 26 °F 87% 29.48 in 15 mi WSW 3.5 mph - -   Scattered Clouds
11:00 PM 26.6 °F 21.2 °F 26.6 °F 100% 29.48 in 15.0 mi SW 4.6 mph - N/A   Partly Cloudy